Content
SEND FEEDBACK

Daily
Averages
Monthly
Summary
United States of America

CUBA, NEW YORK


Home > North America > United States > New York
Elevation: 1640 feet     Latitude: 42 08N     Longitude: 078 14W

WEATHER
 
SELECT A DAY
Number of Records: 54,683;   Date Range: 1/2/95 - 8/22/14
 
SHARE

PRINT THIS DATA

[ ← Previous Day ]
WEATHER ALMANAC - FEBRUARY 8, 2014
[ Next Day → ]
[ °C ]   °F
Weather ElementAverageHighLow
Temperature7.9 °F17.6 °F (3:55 pm)-0.4 °F (6:15 am)
Dewpoint-0.7 °F8.6 °F (5:55 pm)-7.6 °F (12:35 am)
Humidity68.6 %85 % (6:15 pm)49 % (3:55 pm)
Barometer30.11 in30.16 in (5:15 am)30.04 in (11:55 pm)
Wind Speed4.2 mph9.2 mph (2:55 am)
Wind Gust18.4 mph (1:15 am)
Weather ElementAverage
Visibility9.9 mi
Wind DirectionS (182.5 °)

Weather ElementTotal
Precipitation---
Heating Degree Days56.4 (Base 65)
Averaged from 71 records on February 8, 2014
WEATHER CONDITIONS BREAKOUT
WIND DIRECTION BREAKOUT
WEATHER BY HOUR - FEBRUARY 8, 2014
[ °C ]   °F
Local TimeTemperatureDewpointHumidityBarometerVisibilityWind DirectionWind SpeedGust SpeedPrecipitationEventsConditions
12:35 AM5.0 °F-7.6 °F56 %30.12 in10.0 miWSW (250°)8.1 mph17.3 mphClear
12:55 AM5.0 °F-7.6 °F56 %30.12 in10.0 miWSW (250°)8.1 mphClear
1:15 AM5.0 °F-7.6 °F56 %30.12 in10.0 miWSW (250°)8.1 mph18.4 mphClear
1:35 AM3.2 °F-7.6 °F61 %30.12 in10.0 miWest (260°)5.8 mphClear
1:55 AM3.2 °F-7.6 °F61 %30.13 in10.0 miWSW (250°)6.9 mphClear
2:15 AM3.2 °F-7.6 °F61 %30.14 in10.0 miWSW (240°)6.9 mphClear
2:35 AM3.2 °F-7.6 °F61 %30.14 in10.0 miWSW (240°)6.9 mphClear
2:55 AM3.2 °F-7.6 °F61 %30.14 in10.0 miWSW (240°)9.2 mphClear
3:15 AM3.2 °F-7.6 °F61 %30.14 in10.0 miWSW (240°)5.8 mphClear
3:35 AM1.4 °F-7.6 °F66 %30.15 in10.0 miWSW (240°)6.9 mphClear
3:55 AM1.4 °F-7.6 °F66 %30.15 in10.0 miWest (270°)5.8 mphClear
4:15 AM1.4 °F-7.6 °F66 %30.15 in10.0 miWSW (250°)4.6 mphClear
4:35 AM1.4 °F-7.6 °F66 %30.15 in10.0 miWSW (240°)5.8 mphClear
4:55 AM1.4 °F-7.6 °F66 %30.15 in10.0 miWSW (240°)5.8 mphClear
5:15 AM1.4 °F-5.8 °F72 %30.16 in10.0 miWSW (240°)5.8 mphClear
5:35 AM1.4 °F-5.8 °F72 %30.15 in10.0 miWSW (240°)8.1 mphClear
5:55 AM1.4 °F-5.8 °F72 %30.15 in10.0 miWSW (240°)3.5 mphClear
6:15 AM-0.4 °F-5.8 °F78 %30.15 in10.0 miWSW (240°)5.8 mphClear
6:35 AM-0.4 °F-5.8 °F78 %30.15 in10.0 miWSW (240°)5.8 mphClear
6:55 AM1.4 °F-5.8 °F72 %30.15 in10.0 miWSW (240°)6.9 mphClear
7:15 AM1.4 °F-5.8 °F72 %30.15 in10.0 miSW (230°)5.8 mphClear
7:35 AM1.4 °F-5.8 °F72 %30.15 in10.0 miSW (230°)4.6 mphClear
7:55 AM1.4 °F-5.8 °F72 %30.15 in10.0 miSW (220°)5.8 mphMostly Cloudy
8:15 AM1.4 °F-5.8 °F72 %30.15 in10.0 miCalmOvercast
8:35 AM3.2 °F-5.8 °F66 %30.16 in10.0 miSSW (210°)6.9 mphOvercast
8:55 AM3.2 °F-5.8 °F66 %30.16 in10.0 miSSW (210°)4.6 mphOvercast
9:15 AM3.2 °F-4.0 °F72 %30.16 in10.0 miCalmOvercast
9:35 AM3.2 °F-4.0 °F72 %30.16 in10.0 miCalmMostly Cloudy
9:55 AM5.0 °F-4.0 °F66 %30.16 in10.0 miSSW (210°)4.6 mphScattered Clouds
10:15 AM5.0 °F-4.0 °F66 %30.16 in10.0 miSW (220°)4.6 mphClear
10:35 AM6.8 °F-0.4 °F72 %30.16 in10.0 miSW (220°)4.6 mphScattered Clouds
10:55 AM8.6 °F-0.4 °F67 %30.15 in10.0 miSW (220°)4.6 mphOvercast
11:15 AM10.4 °F1.4 °F67 %30.14 in10.0 miWSW (240°)3.5 mphOvercast
11:35 AM12.2 °F1.4 °F62 %30.13 in10.0 miWSW (240°)3.5 mphOvercast
11:55 AM12.2 °F1.4 °F62 %30.12 in10.0 miSW (230°)3.5 mphOvercast
12:15 PM12.2 °F3.2 °F67 %30.11 in10.0 miWSW (250°)4.6 mphOvercast
12:35 PM12.2 °F1.4 °F62 %30.11 in10.0 miWSW (250°)3.5 mphOvercast
12:55 PM14.0 °F1.4 °F57 %30.10 in10.0 miSW (230°)3.5 mphOvercast
1:15 PM14.0 °F-0.4 °F53 %30.09 in10.0 miWSW (240°)4.6 mphOvercast
1:35 PM14.0 °F1.4 °F57 %30.09 in10.0 miSW (220°)3.5 mphOvercast
1:55 PM14.0 °F1.4 °F57 %30.08 in10.0 miSouth (190°)5.8 mphOvercast
2:15 PM14.0 °F1.4 °F57 %30.08 in10.0 miSSW (200°)4.6 mphOvercast
2:35 PM14.0 °F1.4 °F57 %30.07 in10.0 miSSW (210°)5.8 mphOvercast
2:55 PM14.0 °F1.4 °F57 %30.07 in10.0 miSW (220°)4.6 mphOvercast
3:15 PM15.8 °F1.4 °F53 %30.07 in10.0 miSSW (210°)5.8 mphOvercast
3:35 PM15.8 °F1.4 °F53 %30.06 in10.0 miSSW (200°)4.6 mphOvercast
3:55 PM17.6 °F1.4 °F49 %30.06 in10.0 miSW (230°)4.6 mphOvercast
4:15 PM15.8 °F1.4 °F53 %30.07 in10.0 miSSW (210°)5.8 mphOvercast
4:35 PM15.8 °F3.2 °F58 %30.07 in10.0 miSW (220°)4.6 mphOvercast
4:55 PM14.0 °F5.0 °F67 %30.07 in10.0 miSSW (210°)5.8 mphOvercast
5:15 PM14.0 °F6.8 °F73 %30.06 in10.0 miSSW (200°)4.6 mphOvercast
5:35 PM14.0 °F6.8 °F73 %30.06 in10.0 miSSW (210°)5.8 mphSnowLight Snow
5:55 PM14.0 °F8.6 °F79 %30.06 in10.0 miSSW (210°)5.8 mphSnowLight Snow
6:15 PM12.2 °F8.6 °F85 %30.05 in10.0 miSW (220°)4.6 mphSnowLight Snow
6:35 PM12.2 °F8.6 °F85 %30.06 in7.0 miWSW (240°)3.5 mphSnowLight Snow
6:55 PM12.2 °F5.0 °F73 %30.07 in10.0 miWest (260°)5.8 mphOvercast
7:15 PM12.2 °F5.0 °F73 %30.05 in10.0 miWest (270°)3.5 mphOvercast
7:35 PM10.4 °F5.0 °F79 %30.05 in10.0 miCalmMostly Cloudy
7:55 PM10.4 °F5.0 °F79 %30.06 in10.0 miCalmScattered Clouds
8:15 PM10.4 °F5.0 °F79 %30.05 in10.0 miCalmOvercast
8:35 PM10.4 °F5.0 °F79 %30.05 in10.0 miCalmMostly Cloudy
8:55 PM8.6 °F5.0 °F85 %30.05 in10.0 miCalmOvercast
9:15 PM8.6 °F3.2 °F79 %30.06 in10.0 miCalmMostly Cloudy
9:35 PM8.6 °F3.2 °F79 %30.05 in10.0 miCalmScattered Clouds
9:55 PM8.6 °F5.0 °F85 %30.06 in10.0 miCalmMostly Cloudy
10:15 PM8.6 °F5.0 °F85 %30.06 in10.0 miCalmOvercast
10:35 PM8.6 °F5.0 °F85 %30.07 in10.0 miSW (230°)3.5 mphOvercast
10:55 PM8.6 °F5.0 °F85 %30.06 in10.0 miCalmOvercast
11:15 PM8.6 °F5.0 °F85 %30.05 in10.0 miWSW (250°)3.5 mphOvercast
11:35 PM10.4 °F5.0 °F79 %30.05 in10.0 miCalmOvercast
11:55 PM10.4 °F5.0 °F79 %30.04 in5.0 miCalmSnowLight Snow
Hourly data recorded from KOLE, located miles away from Cuba, New York







STORIES FROM OUR PARTNERS